Regional Weather Roundup
Issued by NWS Midland/Odessa, TX

Skip options and go directly to product.
Home | Oldest Version | Previous Version | Current Version | All | Text Only | Save Text | Print | Product List | Glossary On

Skip product version selection by date and time.   
104
ASUS44 KMAF 231110
RWRMAF
MIDLAND AREA WEATHER ROUNDUP
NATIONAL WEATHER SERVICE MIDLAND TX
500 AM CST SUN NOV 23 2014

...IN SOUTHWEST TEXAS AND SOUTHEAST NEW MEXICO...

CITY           SKY/WX    TMP DP  RH WIND       PRES   REMARKS
ALPINE         CLEAR     53  28  38 W30G41    29.86F
ANDREWS        FAIR      49  27  43 W16G22    29.64F
ARTESIA        NOT AVBL
BIG SPRING     PTCLDY    47  38  73 S7        29.64S
CARLSBAD       PTCLDY    59  17  19 W21G31    29.67R
DRYDEN           N/A     56  39  53 SW15      29.70F
FORT STOCKTON  CLEAR     54  32  43 SW16G25   29.70F
GUAD PASS      CLEAR     45  20  36 SW35G44   29.81R WCI  35
HOBBS          PTCLDY    46  23  39 W8        29.68R
MARFA          CLEAR     34  28  80 SE6       29.89F WCI  29
MIDLAND AIRPK  PTCLDY    53  32  44 W13G20    29.64F
MIDLAND INTL   PTCLDY    52  31  44 SW18      29.63F
ODESSA         PTCLDY    52  27  38 W14       29.65F
PECOS          CLEAR     58  27  31 SW15G23   29.69F
PRESIDIO       FAIR      51  37  57 NE3       29.86S
SEMINOLE       PTCLDY    52  23  33 W16G22    29.65R
SNYDER         CLEAR     44  42  95 S8        29.60F WCI  39
WINK           PTCLDY    56  23  27 W20G25    29.66F
$$
...OTHER STATIONS IN TEXAS...

CITY           SKY/WX    TMP DP  RH WIND       PRES   REMARKS
ABILENE        CLEAR     51  49  92 S8        29.59F
AMARILLO       PTCLDY    55  20  25 W21G30    29.48S
AUSTIN         PTCLDY    54  54 100 SW6       29.67F
BROWNSVILLE    CLEAR     61  60  97 NW5       29.77S FOG
CORPUS CHRISTI CLEAR     59  58  96 SW6       29.73F
DALLAS FTW     CLOUDY    51  51 100 S8        29.60F
DEL RIO        PTCLDY    47  46  97 SE3       29.71F FOG
EL PASO        PTCLDY    52  20  28 S10G17    29.86S
HOUSTON INT    MOCLDY    62  60  93 S6        29.62S
LUBBOCK        MOCLDY    51  25  36 W15       29.56F
SAN ANGELO     CLEAR     47  41  80 SW6       29.64F
SAN ANTONIO    PTCLDY    55  52  89 CALM      29.71S
WACO           MOCLDY    53  53 100 SW3       29.64F
WICHITA FALLS  NOT AVBL
$$
...OTHER LOCATIONS IN NEW MEXICO...

CITY           SKY/WX    TMP DP  RH WIND       PRES   REMARKS
ALAMAGORDO     PTCLDY    41  19  42 MISG      29.81F
ALBUQUERQUE    PTCLDY    46  17  31 W15       29.79S WCI  40
CANNON AFB     PTCLDY    50  18  27 W12       29.71F
CLOVIS         PTCLDY    48  18  29 W17G23    29.61R
HOLLOMAN AFB   PTCLDY    43  18  36 SE10      29.80S WCI  38
ROSWELL        PTCLDY    39  25  57 N5        29.68R WCI  36
RUIDOSO        CLEAR     45  14  29 W18G25    29.82R WCI  37
SANTA FE       PTCLDY    33  16  49 CALM      29.76F
TRUTH OR CONSE CLEAR     40  19  43 E5        29.83S WCI  37
TUCUMCARI        N/A     47  19  33 W13       29.59R
$$

USA.gov is the U.S. government's official web portal to all federal, state and local government web resources and services.